SCP
-0 0 0 0 0 0 0 0 0 0 0 0 0 0 0 0 0 0 0 0 0 0 0 0 0 0 0 0 0 0 0 0 0 0 0 0 0 0 0 0 0 0 0 0 0 0 0 0 0
0 0 0 0 0 0 0 0 0 0 0 0 0 0 0 0 0 0 0 0 0 0 0 0 0 0 0 0 0 0 0 0 0 0 0 0 0 0 0 0 0 0 0 0 0 0 0 0 0
0 0 0 0 0 0 0 0 0 0 0 0 0 0 0 0 0 0 0 0 0 0 0 0 0 1 0 0 0 0 0 0 0 0 0 0 0 0 0 0 0 0 0 0 0 0 0 0 0
0 0 0 0 0 0 0 0 0 0 0 0 0 0 0 0 0 0 0 0 0 0 0 0 0 0 0 0 0 0 0 0 0 0 0 0 0 0 0 0 0 0 0 0 0 0 0 0 0
0 0 0 0 0 0 0 0 0 0 0 0 0 0 0 0 0 0 0 0 0 0 0 0 0 0 0 0 0 0 0 0 0 0 0 0 0 0 0 0 0 0 0 0 0 0 0 0 0
0 0 0 0 0 0 0 0 0 0 0 0 0 0 0 0 0 0 0 0 0 0 0 0 0 0 0 0 0 0 0 0 0 0 0 0 0 0 0 0 0 0 0 0 0 0 0 0 0
0 0 0 0 0 0 0 0 0 0 0 0 0 0 0 0 0 0 0 0 0 0 0 0 0 0 0 0 0 0 0 0 0 0 0 0 0 0 0 0 0 0 0 0 0 0 0 0 0
0 0 0 0 0 0 0 0 0 0 0 0 0 0 0 0 0 0 0 0 0 0 0 0 0 0 0 0 0 0 0 0 1 0 0 0 0 0 0 0 0 0 0 0 0 0 0 0 0
0 0 0 0 0 0 0 0 0 0 0 0 0 0 0 0 0 0 0 0 0 0 0 0 0 0 0 0 0 0 0 0 0 0 0 0 0 0 0 0 0 0 0 0 0 0 0 0 0
0 0 0 0 0 0 0 0 0 0 0 0 0 0 0 0 0 0 0 0 0 0 0 0 0 0 0 0 0 0 0 0 0 0 0 0 0 0 0 0 0 0 0 0 0 0 0 0 0
0 0 0 0 0 0 0 0 0 0 0 0 0 0 0 0 0 0 0 0 0 0 0 0 0 0 0 0 0 0 0 1 1 1 1 1 0 0 0 0 0 0 0 0 0 0 0 0 0
0 0 0 0 0 0 0 0 0 0 0 0 0 0 0 0 0 0 0 0 0 0 0 0 0 0 0 0 0 0 0 0 1 1 0 1 1 1 0 0 0 0 0 0 0 0 0 0 0
0 0 0 0 0 0 0 0 0 0 0 0 0 0 0 0 0 0 0 0 0 0 0 0 0 0 0 0 0 0 0 0 0 1 1 1 1 1 0 0 0 0 0 0 0 0 0 0 0
0 0 0 0 0 0 0 0 0 0 0 0 0 0 0 0 0 0 0 0 0 0 0 0 0 0 0 0 0 0 0 0 0 1 1 1 1 0 0 0 0 0 0 0 0 0 0 0 0
0 0 0 0 0 0 0 0 0 0 0 0 0 0 0 0 0 0 0 0 0 0 0 0 0 0 0 0 0 0 0 0 0 0 1 1 1 0 0 0 0 0 0 0 0 0 0 0 0
0 0 0 0 0 0 0 0 0 0 0 0 0 0 0 0 0 0 0 0 0 0 0 0 0 0 0 0 0 0 0 0 0 0 1 1 1 0 0 0 0 0 0 0 0 0 0 0 0
0 0 0 0 0 0 0 0 0 0 0 0 0 0 0 0 0 0 0 0 0 0 0 0 0 0 0 0 0 0 0 0 0 0 1 0 0 0 0 0 0 0 0 0 0 0 0 0 0
0 0 0 0 0 0 0 0 0 0 0 0 0 0 0 0 0 0 0 0 0 0 0 0 -0 -0 0 0 0 0 0 0 0 0 1 1 0 0 0 0 0 0 0 0 0 0 0 0 0
0 0 0 0 0 0 0 0 0 0 0 0 0 0 0 0 0 0 0 0 0 0 0 0 0 0 0 0 0 0 0 0 0 0 1 1 1 0 0 0 0 0 0 0 0 0 0 0 0
0 0 0 0 0 0 0 0 0 0 0 0 0 0 0 0 0 0 0 0 0 0 0 0 0 0 0 0 0 0 0 0 0 0 1 1 1 0 0 0 0 0 0 0 0 0 0 0 0
0 0 0 0 0 0 -0 0 0 0 0 0 0 0 0 0 0 0 0 0 0 0 0 0 0 0 0 0 0 0 0 0 0 0 1 1 0 0 0 0 0 0 0 0 0 0 0 0 0
0 0 0 0 0 0 0 0 0 0 0 0 0 0 0 0 0 0 0 0 0 0 0 0 0 0 0 0 0 0 0 0 0 0 1 1 0 0 0 0 0 0 0 0 0 0 0 0 0
0 0 0 0 -0 -0 0 0 0 0 0 0 0 0 0 0 0 0 0 0 0 0 0 0 0 0 0 0 0 -0 -0 0 0 0 0 0 0 0 0 0 0 0 0 0 0 0 0 0 0
0 0 0 0 0 0 0 0 0 0 0 0 0 0 0 0 0 0 0 0 0 0 0 0 0 0 0 0 -0 -0 0 0 0 0 0 0 0 0 0 0 0 0 0 0 0 0 0 0 0
0 0 0 0 0 0 0 0 0 0 0 0 0 0 0 0 0 0 0 0 0 0 0 0 0 0 0 0 -0 -0 0 0 0 0 0 0 0 0 0 0 0 0 0 0 0 0 0 0 0
0 0 0 0 0 0 0 0 0 0 0 0 0 0 0 0 0 0 0 0 0 0 0 0 0 0 0 0 0 0 -0 0 0 0 0 0 0 0 0 0 0 0 0 0 0 0 0 0 0
0 0 0 0 0 0 0 0 0 0 0 0 0 0 0 0 0 0 0 0 0 0 0 0 0 0 -0 0 0 0 0 0 -0 0 -0 0 0 0 0 0 0 0 0 0 0 0 0 0 0
0 0 0 0 0 0 0 0 0 0 0 0 0 0 0 0 0 0 0 0 0 0 0 0 -0 0 0 -0 0 -0 -0 0 0 -0 -0 -0 0 0 0 0 0 0 0 0 0 -0 -0 -0 -0
0 0 0 0 0 0 0 0 0 0 0 0 0 0 0 0 0 0 0 0 0 0 0 0 -0 -0 0 0 -0 -0 -0 -0 -0 -0 -0 0 0 0 0 0 0 0 -0 -0 0 -0 0 0 0
0 0 0 0 0 0 0 0 0 0 0 0 0 0 0 0 0 0 0 0 0 0 0 0 -0 -0 -0 0 0 -0 -0 -0 -0 -0 -0 0 -0 -0 0 0 0 0 0 0 0 0 0 -0 -0
Wind_Speed_500mb
13 15 7 9 11 9 9 6 5 6 6 15 20 13 16 21 15 8 22 16 32 27 22 25 22 23 25 22 19 23 27 24 21 23 20 20 18 15 14 13 9 7 8 7 16 20 17 17 19
14 15 8 10 12 13 5 8 12 7 14 20 10 11 10 9 16 10 18 36 25 26 20 20 26 26 28 27 24 25 27 28 27 26 27 26 24 19 18 15 8 10 11 10 21 20 17 23 16
20 23 12 8 10 12 7 6 5 9 8 17 12 12 10 8 14 17 32 37 20 21 21 16 29 32 32 31 29 28 28 27 29 30 31 30 27 26 23 14 12 13 7 10 15 14 16 17 18
10 11 10 14 17 7 7 6 11 10 3 9 13 4 9 15 10 26 34 35 27 14 11 19 26 37 39 35 32 30 29 26 26 27 28 29 28 28 19 19 18 17 14 13 16 17 17 17 17
8 10 12 12 9 5 4 8 10 10 7 11 16 6 4 3 20 29 32 34 35 22 16 16 26 32 40 40 38 35 32 30 28 26 30 29 31 27 24 24 22 19 16 22 18 19 18 17 16
12 9 12 16 11 5 4 11 9 8 7 10 14 18 6 9 33 37 36 34 31 32 23 25 24 28 38 41 41 40 37 35 32 32 33 33 34 29 26 24 21 22 21 24 23 21 17 16 15
16 10 11 7 3 8 2 11 6 11 13 8 19 15 9 7 42 45 41 34 30 30 33 30 32 28 33 39 43 43 42 39 37 39 39 35 36 32 27 21 20 24 26 26 23 23 18 17 17
9 7 4 3 7 5 4 6 5 10 8 12 17 8 13 41 49 47 41 35 32 31 38 36 37 40 44 32 38 47 47 45 43 44 41 39 35 33 30 23 21 20 30 26 26 24 19 19 19
3 9 8 4 6 8 2 7 3 8 12 7 10 12 27 41 45 43 41 36 35 34 37 38 41 41 47 47 45 40 48 51 47 47 46 44 42 38 36 29 25 21 23 27 25 24 21 21 18
7 8 6 6 7 2 3 7 10 9 8 6 17 24 34 39 41 42 43 42 40 40 41 37 41 45 45 52 51 49 44 51 55 54 50 51 48 46 41 34 32 24 23 25 26 27 25 22 11
5 5 11 6 5 2 3 8 5 12 11 9 27 36 39 39 40 38 40 40 43 44 41 40 41 41 46 49 51 51 53 47 53 54 54 51 52 54 51 40 36 34 32 26 29 29 27 15 13
6 4 3 7 3 3 5 9 7 5 7 16 23 32 38 41 41 42 44 41 42 43 41 42 41 43 43 46 49 51 56 62 52 60 58 55 57 59 61 50 42 40 30 26 28 27 20 19 24
5 9 8 9 6 2 6 7 12 6 8 17 25 30 34 36 37 37 37 41 40 43 42 42 43 44 42 44 44 44 50 60 67 58 67 61 61 60 60 56 47 37 35 30 28 26 25 32 24
6 10 10 5 2 5 10 5 5 9 11 20 22 27 29 30 35 37 38 41 39 43 44 44 45 46 44 46 49 54 52 56 63 67 57 68 67 57 57 59 50 42 33 31 27 25 28 26 24
12 7 8 11 2 4 11 15 15 2 11 18 22 23 25 30 34 34 36 38 41 43 43 45 48 47 44 46 48 52 59 59 63 71 62 60 65 56 59 54 55 41 36 31 28 28 30 26 26
6 6 9 14 5 6 7 5 10 6 13 16 16 17 22 29 35 34 34 36 40 43 48 51 50 59 48 45 42 51 56 61 63 61 55 55 61 67 56 53 51 42 36 32 31 31 30 28 25
9 8 11 6 6 3 8 15 12 9 12 15 11 12 16 23 30 33 34 37 44 38 43 47 54 64 63 48 46 46 53 57 59 60 71 59 53 61 40 66 58 41 39 33 33 31 29 23 22
5 9 6 12 8 11 20 30 14 15 14 16 12 11 16 23 28 34 39 40 55 50 49 49 55 68 61 52 47 46 47 50 54 54 59 67 52 48 50 62 68 51 40 36 33 29 28 25 19
3 6 11 7 2 9 15 22 20 19 22 21 14 14 18 25 30 34 32 37 50 60 60 55 62 72 57 54 49 44 40 40 43 52 57 53 46 43 56 54 52 49 56 36 32 30 29 27 24
1 5 10 9 3 8 21 31 29 24 27 20 18 17 22 28 33 35 35 36 42 58 66 61 66 61 56 51 44 40 37 35 33 41 55 64 50 43 53 66 57 58 49 40 36 35 33 31 25
5 6 5 9 16 16 23 16 8 13 24 24 25 19 18 23 29 33 37 37 42 48 70 66 58 54 50 40 34 30 28 34 37 42 52 56 50 43 40 45 64 59 52 48 44 40 37 32 27
11 4 5 9 14 7 8 11 7 16 21 23 24 17 14 18 23 29 35 38 40 51 67 66 56 52 38 26 24 18 21 27 28 43 48 49 47 42 32 51 59 56 60 51 44 37 36 33 27
6 3 5 7 13 14 11 5 4 10 18 25 21 13 9 14 20 28 34 36 37 49 62 70 54 49 34 24 12 7 22 19 18 36 39 40 33 40 34 42 56 57 58 57 43 38 33 30 30
10 4 8 7 7 6 9 5 8 11 9 15 20 14 8 8 15 20 27 32 38 46 61 63 70 53 37 36 26 20 6 10 22 26 34 36 32 31 32 39 49 49 56 56 49 33 31 26 30
10 8 4 5 4 4 6 10 20 13 14 15 18 15 7 4 12 21 29 35 41 47 60 62 72 63 47 35 29 23 22 11 20 21 24 23 26 31 21 36 46 49 45 44 37 30 25 23 20
20 5 5 7 5 7 7 13 6 3 14 17 13 12 9 4 6 15 23 29 35 41 48 59 58 70 64 46 41 32 32 35 40 34 34 40 44 48 50 47 50 56 45 30 34 48 49 46 44
11 11 5 3 4 5 9 12 22 13 16 20 22 19 14 8 1 10 18 23 29 34 39 48 54 73 61 64 55 53 59 50 47 72 55 73 78 78 77 76 79 76 71 67 64 61 53 48 38
6 6 4 4 3 8 7 12 16 17 27 24 25 27 18 12 6 2 11 18 24 27 30 37 46 58 55 66 70 76 80 88 90 92 94 90 87 84 86 82 81 73 65 63 55 42 38 31 30
10 9 8 5 5 5 8 8 5 12 20 26 28 29 24 18 12 5 5 12 18 21 25 32 38 49 51 56 56 68 73 81 78 81 86 84 82 78 71 70 65 57 53 43 40 34 29 24 25
10 17 22 9 11 7 1 15 4 4 9 17 26 29 26 21 17 11 4 6 12 15 20 26 31 38 41 46 50 52 54 58 72 68 65 61 66 62 63 61 57 51 40 37 32 34 32 27 24
Wind_Direction_500mb
223 212 211 251 246 237 246 156 8 181 190 5 314 291 18 21 8 15 336 315 326 340 318 262 231 231 242 243 231 224 232 232 227 222 235 234 235 249 254 211 203 246 256 245 174 173 184 168 166
181 164 200 261 255 242 134 80 201 41 345 332 322 323 208 82 35 343 352 325 346 344 319 248 253 235 242 244 235 225 230 240 241 237 241 237 245 240 212 199 229 265 271 224 180 183 183 185 167
155 155 231 238 259 271 23 87 359 325 335 360 326 20 20 13 3 352 337 338 341 354 323 232 250 252 243 245 242 234 229 236 244 244 239 237 223 210 197 221 259 272 260 215 185 191 174 174 169
138 193 236 247 247 99 3 73 349 324 154 4 347 171 75 44 13 345 342 345 331 325 314 267 248 253 247 248 246 243 236 235 236 232 224 218 212 201 215 252 269 256 216 217 198 190 191 186 186
175 231 238 246 250 80 109 9 329 319 336 334 335 325 206 39 6 348 343 345 340 312 290 237 258 257 248 250 249 246 242 237 234 234 230 213 204 222 242 256 264 243 212 211 213 201 199 198 201
217 271 239 239 177 131 136 355 319 306 320 335 334 317 236 167 349 339 338 337 336 328 303 264 264 243 246 256 251 247 243 239 236 228 222 227 224 232 243 253 249 227 209 215 220 228 212 213 216
277 241 286 313 180 193 73 340 349 329 293 2 333 284 318 244 335 331 330 328 326 327 313 296 264 264 252 244 256 249 246 241 239 232 229 229 236 237 241 239 232 231 201 221 222 227 219 220 225
277 268 240 224 205 158 94 335 343 342 10 328 345 353 302 325 328 329 328 325 320 317 304 297 284 270 268 252 247 249 248 244 239 237 234 233 226 232 233 225 221 235 207 219 222 233 227 228 230
292 246 226 154 200 99 80 324 49 319 287 321 327 318 319 320 327 328 329 326 322 320 305 295 291 278 265 264 257 247 242 243 241 239 238 236 228 227 227 223 216 226 208 218 230 236 234 235 240
274 264 71 35 55 60 346 308 322 299 296 260 310 311 318 324 328 326 327 325 325 322 313 304 287 280 275 266 259 255 251 240 237 236 234 234 230 226 222 221 214 221 222 221 228 238 233 239 236
4 332 132 120 79 20 310 254 295 299 247 336 319 318 320 327 326 322 320 319 319 320 319 318 312 299 282 272 265 254 255 246 237 231 232 230 231 224 221 215 215 213 226 230 222 233 234 232 231
158 103 137 144 122 199 276 304 261 331 345 321 314 318 323 325 327 326 323 321 318 318 316 318 315 307 295 280 270 260 246 248 244 234 227 226 230 228 225 214 218 217 217 216 238 207 216 221 234
117 149 142 142 168 162 295 305 297 211 331 326 324 326 325 325 324 320 317 317 316 317 319 318 316 310 302 290 279 266 257 245 243 245 235 225 229 224 229 220 214 218 206 227 238 212 212 230 232
123 155 152 160 177 221 312 285 249 194 320 326 330 330 330 330 326 324 320 321 320 316 317 321 317 312 300 290 275 264 255 247 240 240 244 235 231 224 245 228 217 218 215 221 225 217 218 228 236
140 163 207 209 192 253 314 222 226 252 312 322 339 340 344 346 341 334 328 321 319 314 315 320 321 317 302 292 288 273 257 251 244 235 247 247 239 215 220 232 229 218 213 220 227 213 219 225 237
205 247 238 137 214 161 304 307 159 246 313 320 334 352 356 360 1 352 341 330 327 318 311 317 322 319 314 291 283 282 268 250 248 242 236 250 245 207 217 223 217 210 213 218 226 229 232 234 238
193 282 232 183 200 269 238 307 134 253 291 296 314 342 349 350 357 356 348 342 342 333 322 326 328 326 319 304 284 276 272 258 242 237 233 248 228 211 216 226 221 208 211 218 228 230 228 229 230
226 245 234 265 148 241 263 268 251 250 258 274 287 312 327 333 337 339 347 350 357 344 335 330 328 331 317 307 291 282 275 266 241 228 226 228 236 229 221 219 219 206 221 222 220 223 225 219 219
297 267 276 270 66 291 256 274 273 252 245 256 273 300 323 332 335 332 333 345 350 360 350 343 338 331 321 307 299 284 274 265 243 218 218 220 219 221 217 218 217 217 219 224 226 223 221 223 217
278 294 277 267 268 289 294 283 267 243 235 252 271 292 314 321 331 334 337 340 348 360 2 355 340 330 320 308 294 281 271 242 219 223 212 217 217 227 223 218 231 222 208 214 221 223 219 224 223
200 245 276 295 317 249 303 279 226 236 225 251 261 275 297 314 324 332 340 343 344 350 2 356 347 338 327 312 296 282 261 231 216 205 210 213 211 213 226 227 227 221 223 220 224 224 224 225 232
259 171 232 300 320 309 17 291 263 218 224 233 249 259 294 317 327 333 339 341 347 358 4 1 357 355 344 333 297 261 220 211 210 199 203 207 205 211 224 236 219 223 211 221 217 220 227 223 224
35 137 267 291 284 310 162 249 236 199 238 235 230 228 279 315 330 338 338 343 352 5 10 9 9 9 21 1 341 213 188 212 215 200 194 197 195 197 213 216 234 211 215 209 210 212 213 216 223
127 226 239 258 267 257 142 241 244 202 196 194 196 197 232 299 325 338 345 347 0 14 18 15 22 21 35 55 82 94 199 208 184 169 170 176 179 198 213 231 220 214 225 203 210 203 215 221 243
211 244 278 240 213 287 158 248 267 216 185 179 183 182 204 297 331 345 358 355 4 17 26 28 27 35 40 62 73 89 95 122 130 134 153 161 182 174 194 210 199 219 196 181 184 199 203 201 176
199 283 268 274 296 354 155 238 256 154 179 181 187 185 198 242 328 341 2 4 5 20 30 34 36 37 44 58 87 98 108 114 118 125 126 120 134 136 142 154 158 150 172 199 165 144 126 123 114
153 213 32 284 107 275 231 247 239 163 197 195 207 209 210 206 219 336 2 11 13 24 30 41 44 47 52 60 80 101 110 112 118 112 120 118 114 115 116 114 109 106 104 107 103 100 110 117 113
263 124 150 229 235 258 236 272 249 208 215 201 210 212 206 194 185 328 2 13 28 29 37 48 54 55 58 68 74 83 94 103 103 102 100 102 101 102 103 104 102 99 98 104 109 109 114 123 128
167 210 213 313 236 235 300 261 21 190 187 196 207 204 197 192 183 185 16 15 31 40 52 59 65 69 68 66 79 81 83 90 95 94 100 101 103 102 101 103 107 109 108 112 119 129 126 131 126
279 232 198 226 191 230 45 271 89 107 153 186 190 197 193 187 180 180 134 39 35 50 68 76 80 84 76 67 80 86 91 93 103 105 105 100 98 102 105 110 114 116 120 121 128 122 119 112 107
Wind_Speed_850mb
13 15 7 9 11 9 9 6 5 6 6 15 20 13 16 21 15 8 22 16 32 27 22 25 22 23 25 22 19 23 27 24 21 23 20 20 18 15 14 13 9 7 8 7 16 20 17 17 19
14 15 8 10 12 13 5 8 12 7 14 20 10 11 10 9 16 10 18 36 25 26 20 20 26 26 28 27 24 25 27 28 27 26 27 26 24 19 18 15 8 10 11 10 21 20 17 23 16
20 23 12 8 10 12 7 6 5 9 8 17 12 12 10 8 14 17 32 37 20 21 21 16 29 32 32 31 29 28 28 27 29 30 31 30 27 26 23 14 12 13 7 10 15 14 16 17 18
10 11 10 14 17 7 7 6 11 10 3 9 13 4 9 15 10 26 34 35 27 14 11 19 26 37 39 35 32 30 29 26 26 27 28 29 28 28 19 19 18 17 14 13 16 17 17 17 17
8 10 12 12 9 5 4 8 10 10 7 11 16 6 4 3 20 29 32 34 35 22 16 16 26 32 40 40 38 35 32 30 28 26 30 29 31 27 24 24 22 19 16 22 18 19 18 17 16
12 9 12 16 11 5 4 11 9 8 7 10 14 18 6 9 33 37 36 34 31 32 23 25 24 28 38 41 41 40 37 35 32 32 33 33 34 29 26 24 21 22 21 24 23 21 17 16 15
16 10 11 7 3 8 2 11 6 11 13 8 19 15 9 7 42 45 41 34 30 30 33 30 32 28 33 39 43 43 42 39 37 39 39 35 36 32 27 21 20 24 26 26 23 23 18 17 17
9 7 4 3 7 5 4 6 5 10 8 12 17 8 13 41 49 47 41 35 32 31 38 36 37 40 44 32 38 47 47 45 43 44 41 39 35 33 30 23 21 20 30 26 26 24 19 19 19
3 9 8 4 6 8 2 7 3 8 12 7 10 12 27 41 45 43 41 36 35 34 37 38 41 41 47 47 45 40 48 51 47 47 46 44 42 38 36 29 25 21 23 27 25 24 21 21 18
7 8 6 6 7 2 3 7 10 9 8 6 17 24 34 39 41 42 43 42 40 40 41 37 41 45 45 52 51 49 44 51 55 54 50 51 48 46 41 34 32 24 23 25 26 27 25 22 11
5 5 11 6 5 2 3 8 5 12 11 9 27 36 39 39 40 38 40 40 43 44 41 40 41 41 46 49 51 51 53 47 53 54 54 51 52 54 51 40 36 34 32 26 29 29 27 15 13
6 4 3 7 3 3 5 9 7 5 7 16 23 32 38 41 41 42 44 41 42 43 41 42 41 43 43 46 49 51 56 62 52 60 58 55 57 59 61 50 42 40 30 26 28 27 20 19 24
5 9 8 9 6 2 6 7 12 6 8 17 25 30 34 36 37 37 37 41 40 43 42 42 43 44 42 44 44 44 50 60 67 58 67 61 61 60 60 56 47 37 35 30 28 26 25 32 24
6 10 10 5 2 5 10 5 5 9 11 20 22 27 29 30 35 37 38 41 39 43 44 44 45 46 44 46 49 54 52 56 63 67 57 68 67 57 57 59 50 42 33 31 27 25 28 26 24
12 7 8 11 2 4 11 15 15 2 11 18 22 23 25 30 34 34 36 38 41 43 43 45 48 47 44 46 48 52 59 59 63 71 62 60 65 56 59 54 55 41 36 31 28 28 30 26 26
6 6 9 14 5 6 7 5 10 6 13 16 16 17 22 29 35 34 34 36 40 43 48 51 50 59 48 45 42 51 56 61 63 61 55 55 61 67 56 53 51 42 36 32 31 31 30 28 25
9 8 11 6 6 3 8 15 12 9 12 15 11 12 16 23 30 33 34 37 44 38 43 47 54 64 63 48 46 46 53 57 59 60 71 59 53 61 40 66 58 41 39 33 33 31 29 23 22
5 9 6 12 8 11 20 30 14 15 14 16 12 11 16 23 28 34 39 40 55 50 49 49 55 68 61 52 47 46 47 50 54 54 59 67 52 48 50 62 68 51 40 36 33 29 28 25 19
3 6 11 7 2 9 15 22 20 19 22 21 14 14 18 25 30 34 32 37 50 60 60 55 62 72 57 54 49 44 40 40 43 52 57 53 46 43 56 54 52 49 56 36 32 30 29 27 24
1 5 10 9 3 8 21 31 29 24 27 20 18 17 22 28 33 35 35 36 42 58 66 61 66 61 56 51 44 40 37 35 33 41 55 64 50 43 53 66 57 58 49 40 36 35 33 31 25
5 6 5 9 16 16 23 16 8 13 24 24 25 19 18 23 29 33 37 37 42 48 70 66 58 54 50 40 34 30 28 34 37 42 52 56 50 43 40 45 64 59 52 48 44 40 37 32 27
11 4 5 9 14 7 8 11 7 16 21 23 24 17 14 18 23 29 35 38 40 51 67 66 56 52 38 26 24 18 21 27 28 43 48 49 47 42 32 51 59 56 60 51 44 37 36 33 27
6 3 5 7 13 14 11 5 4 10 18 25 21 13 9 14 20 28 34 36 37 49 62 70 54 49 34 24 12 7 22 19 18 36 39 40 33 40 34 42 56 57 58 57 43 38 33 30 30
10 4 8 7 7 6 9 5 8 11 9 15 20 14 8 8 15 20 27 32 38 46 61 63 70 53 37 36 26 20 6 10 22 26 34 36 32 31 32 39 49 49 56 56 49 33 31 26 30
10 8 4 5 4 4 6 10 20 13 14 15 18 15 7 4 12 21 29 35 41 47 60 62 72 63 47 35 29 23 22 11 20 21 24 23 26 31 21 36 46 49 45 44 37 30 25 23 20
20 5 5 7 5 7 7 13 6 3 14 17 13 12 9 4 6 15 23 29 35 41 48 59 58 70 64 46 41 32 32 35 40 34 34 40 44 48 50 47 50 56 45 30 34 48 49 46 44
11 11 5 3 4 5 9 12 22 13 16 20 22 19 14 8 1 10 18 23 29 34 39 48 54 73 61 64 55 53 59 50 47 72 55 73 78 78 77 76 79 76 71 67 64 61 53 48 38
6 6 4 4 3 8 7 12 16 17 27 24 25 27 18 12 6 2 11 18 24 27 30 37 46 58 55 66 70 76 80 88 90 92 94 90 87 84 86 82 81 73 65 63 55 42 38 31 30
10 9 8 5 5 5 8 8 5 12 20 26 28 29 24 18 12 5 5 12 18 21 25 32 38 49 51 56 56 68 73 81 78 81 86 84 82 78 71 70 65 57 53 43 40 34 29 24 25
10 17 22 9 11 7 1 15 4 4 9 17 26 29 26 21 17 11 4 6 12 15 20 26 31 38 41 46 50 52 54 58 72 68 65 61 66 62 63 61 57 51 40 37 32 34 32 27 24
Wind_Direction_850mb
223 212 211 251 246 237 246 156 8 181 190 5 314 291 18 21 8 15 336 315 326 340 318 262 231 231 242 243 231 224 232 232 227 222 235 234 235 249 254 211 203 246 256 245 174 173 184 168 166
181 164 200 261 255 242 134 80 201 41 345 332 322 323 208 82 35 343 352 325 346 344 319 248 253 235 242 244 235 225 230 240 241 237 241 237 245 240 212 199 229 265 271 224 180 183 183 185 167
155 155 231 238 259 271 23 87 359 325 335 360 326 20 20 13 3 352 337 338 341 354 323 232 250 252 243 245 242 234 229 236 244 244 239 237 223 210 197 221 259 272 260 215 185 191 174 174 169
138 193 236 247 247 99 3 73 349 324 154 4 347 171 75 44 13 345 342 345 331 325 314 267 248 253 247 248 246 243 236 235 236 232 224 218 212 201 215 252 269 256 216 217 198 190 191 186 186
175 231 238 246 250 80 109 9 329 319 336 334 335 325 206 39 6 348 343 345 340 312 290 237 258 257 248 250 249 246 242 237 234 234 230 213 204 222 242 256 264 243 212 211 213 201 199 198 201
217 271 239 239 177 131 136 355 319 306 320 335 334 317 236 167 349 339 338 337 336 328 303 264 264 243 246 256 251 247 243 239 236 228 222 227 224 232 243 253 249 227 209 215 220 228 212 213 216
277 241 286 313 180 193 73 340 349 329 293 2 333 284 318 244 335 331 330 328 326 327 313 296 264 264 252 244 256 249 246 241 239 232 229 229 236 237 241 239 232 231 201 221 222 227 219 220 225
277 268 240 224 205 158 94 335 343 342 10 328 345 353 302 325 328 329 328 325 320 317 304 297 284 270 268 252 247 249 248 244 239 237 234 233 226 232 233 225 221 235 207 219 222 233 227 228 230
292 246 226 154 200 99 80 324 49 319 287 321 327 318 319 320 327 328 329 326 322 320 305 295 291 278 265 264 257 247 242 243 241 239 238 236 228 227 227 223 216 226 208 218 230 236 234 235 240
274 264 71 35 55 60 346 308 322 299 296 260 310 311 318 324 328 326 327 325 325 322 313 304 287 280 275 266 259 255 251 240 237 236 234 234 230 226 222 221 214 221 222 221 228 238 233 239 236
4 332 132 120 79 20 310 254 295 299 247 336 319 318 320 327 326 322 320 319 319 320 319 318 312 299 282 272 265 254 255 246 237 231 232 230 231 224 221 215 215 213 226 230 222 233 234 232 231
158 103 137 144 122 199 276 304 261 331 345 321 314 318 323 325 327 326 323 321 318 318 316 318 315 307 295 280 270 260 246 248 244 234 227 226 230 228 225 214 218 217 217 216 238 207 216 221 234
117 149 142 142 168 162 295 305 297 211 331 326 324 326 325 325 324 320 317 317 316 317 319 318 316 310 302 290 279 266 257 245 243 245 235 225 229 224 229 220 214 218 206 227 238 212 212 230 232
123 155 152 160 177 221 312 285 249 194 320 326 330 330 330 330 326 324 320 321 320 316 317 321 317 312 300 290 275 264 255 247 240 240 244 235 231 224 245 228 217 218 215 221 225 217 218 228 236
140 163 207 209 192 253 314 222 226 252 312 322 339 340 344 346 341 334 328 321 319 314 315 320 321 317 302 292 288 273 257 251 244 235 247 247 239 215 220 232 229 218 213 220 227 213 219 225 237
205 247 238 137 214 161 304 307 159 246 313 320 334 352 356 360 1 352 341 330 327 318 311 317 322 319 314 291 283 282 268 250 248 242 236 250 245 207 217 223 217 210 213 218 226 229 232 234 238
193 282 232 183 200 269 238 307 134 253 291 296 314 342 349 350 357 356 348 342 342 333 322 326 328 326 319 304 284 276 272 258 242 237 233 248 228 211 216 226 221 208 211 218 228 230 228 229 230
226 245 234 265 148 241 263 268 251 250 258 274 287 312 327 333 337 339 347 350 357 344 335 330 328 331 317 307 291 282 275 266 241 228 226 228 236 229 221 219 219 206 221 222 220 223 225 219 219
297 267 276 270 66 291 256 274 273 252 245 256 273 300 323 332 335 332 333 345 350 360 350 343 338 331 321 307 299 284 274 265 243 218 218 220 219 221 217 218 217 217 219 224 226 223 221 223 217
278 294 277 267 268 289 294 283 267 243 235 252 271 292 314 321 331 334 337 340 348 360 2 355 340 330 320 308 294 281 271 242 219 223 212 217 217 227 223 218 231 222 208 214 221 223 219 224 223
200 245 276 295 317 249 303 279 226 236 225 251 261 275 297 314 324 332 340 343 344 350 2 356 347 338 327 312 296 282 261 231 216 205 210 213 211 213 226 227 227 221 223 220 224 224 224 225 232
259 171 232 300 320 309 17 291 263 218 224 233 249 259 294 317 327 333 339 341 347 358 4 1 357 355 344 333 297 261 220 211 210 199 203 207 205 211 224 236 219 223 211 221 217 220 227 223 224
35 137 267 291 284 310 162 249 236 199 238 235 230 228 279 315 330 338 338 343 352 5 10 9 9 9 21 1 341 213 188 212 215 200 194 197 195 197 213 216 234 211 215 209 210 212 213 216 223
127 226 239 258 267 257 142 241 244 202 196 194 196 197 232 299 325 338 345 347 0 14 18 15 22 21 35 55 82 94 199 208 184 169 170 176 179 198 213 231 220 214 225 203 210 203 215 221 243
211 244 278 240 213 287 158 248 267 216 185 179 183 182 204 297 331 345 358 355 4 17 26 28 27 35 40 62 73 89 95 122 130 134 153 161 182 174 194 210 199 219 196 181 184 199 203 201 176
199 283 268 274 296 354 155 238 256 154 179 181 187 185 198 242 328 341 2 4 5 20 30 34 36 37 44 58 87 98 108 114 118 125 126 120 134 136 142 154 158 150 172 199 165 144 126 123 114
153 213 32 284 107 275 231 247 239 163 197 195 207 209 210 206 219 336 2 11 13 24 30 41 44 47 52 60 80 101 110 112 118 112 120 118 114 115 116 114 109 106 104 107 103 100 110 117 113
263 124 150 229 235 258 236 272 249 208 215 201 210 212 206 194 185 328 2 13 28 29 37 48 54 55 58 68 74 83 94 103 103 102 100 102 101 102 103 104 102 99 98 104 109 109 114 123 128
167 210 213 313 236 235 300 261 21 190 187 196 207 204 197 192 183 185 16 15 31 40 52 59 65 69 68 66 79 81 83 90 95 94 100 101 103 102 101 103 107 109 108 112 119 129 126 131 126
279 232 198 226 191 230 45 271 89 107 153 186 190 197 193 187 180 180 134 39 35 50 68 76 80 84 76 67 80 86 91 93 103 105 105 100 98 102 105 110 114 116 120 121 128 122 119 112 107